Location: Newark
(33.1119°N, 7.4058°W)
Time: 04:20:38
(UTC+00:00)

Hubble Space Telescope - Visible Passes

Search period start: 22 January 2021 00:00
Search period end: 01 February 2021 00:00
Orbit: 536 x 539 km, 28.5° (Epoch: 21 January)

Date Brightness Start Highest point End Pass type
(mag) Time Alt. Az. Time Alt. Az. Time Alt. Az.
22 Jan 1.6 19:18:30 10° WSW 19:22:25 43° S 19:23:50 31° SE visible
23 Jan 1.7 19:07:40 10° WSW 19:11:34 41° S 19:13:47 22° SE visible
24 Jan 1.9 18:56:50 10° WSW 19:00:41 38° S 19:03:47 14° SE visible
24 Jan 3.8 20:38:32 10° WSW 20:39:08 12° WSW 20:39:08 12° WSW visible
25 Jan 2.1 18:46:03 10° WSW 18:49:49 34° S 18:53:35 10° SE visible
25 Jan 3.6 20:28:04 10° WSW 20:29:13 14° SW 20:29:13 14° SW visible
26 Jan 2.4 18:35:16 10° WSW 18:38:56 31° SSW 18:42:36 10° SE visible
26 Jan 3.5 20:17:50 10° SW 20:19:25 12° SSW 20:19:25 12° SSW visible
27 Jan 2.7 18:24:31 10° WSW 18:28:03 27° SSW 18:31:32 10° SE visible
